Flag for Norway Weather past 2 weeks in Stjørdal, Norway

Now
33 °F

Sunny.


Feels Like: 30 °F
Forecast: 34 / 51 °F
Wind: 3 mph from East

Location: Trondheim / Vaernes

Current Time: Apr 28, 2015 at 8:23:48 AM

Latest Report: Apr 28, 2015 at 7:00 AM


Visibility: 31 mi

Pressure: 29.77 "Hg

Humidity: 85%

Dew point: 29 °F

Location of StjørdalLocation

Historic Weather in Stjørdal — Graph

°F

Stjørdal temperature yesterday

Maximum temperature yesterday: 52 °F (at 3:00 PM)
Minimum temperature yesterday: 32 °F (at 5:00 AM)
Average temperature yesterday: 43 °F

Past Weeks' High & Low Weather Summary

 TemperatureHumidityPressure
High52 °F (Apr 26, 5:00 PM)97% (Apr 25, 12:00 AM)30.45 "Hg (Apr 25, 12:00 AM)
Low29 °F (Apr 14, 4:00 AM)32% (Apr 26, 5:00 PM)29.15 "Hg (Apr 26, 12:00 AM)
Average41 °F75%29.87 "Hg
* Reported Apr 13 7:00 AM — Apr 28 7:00 AM, Stjørdal, Weather by CustomWeather, © 2015

Note: Actual official high and low records may vary slightly from our data, if they occured in-between our weather recording intervals... More about our weather records

Advertising

Stjørdal weather history for previous 24 hours

 ConditionsComfort  
Time TempWeatherWind HumidityBarometerVisibility
7:00 AM
Tue, Apr 28
33 °FSunny.3 mph85%29.77 "Hg31 mi
6:00 AM33 °FSunny.3 mph85%29.75 "Hg31 mi
5:00 AM34 °FClear.5 mph84%29.74 "Hg31 mi
4:00 AM35 °FPassing clouds.3 mph82%29.73 "Hg31 mi
3:00 AM36 °FClear.3 mph80%29.71 "Hg31 mi
2:00 AM40 °FClear.6 mph72%29.70 "Hg31 mi
1:00 AM40 °FClear.2 mph73%29.69 "Hg31 mi
12:00 AM41 °FClear.3 mph68%29.67 "Hg31 mi
10:00 PM
Mon, Apr 27
46 °FClear.2 mph49%29.65 "Hg31 mi
9:00 PM48 °FSunny.6 mph53%29.64 "Hg28 mi
8:00 PM50 °FPassing clouds.7 mph46%29.62 "Hg28 mi
7:00 PM49 °FScattered clouds.6 mph49%29.61 "Hg28 mi
6:00 PM51 °FScattered clouds.6 mph40%29.60 "Hg28 mi
5:00 PM51 °FSunny.6 mph33%29.60 "Hg22 mi
4:00 PM52 °FSunny.7 mph32%29.60 "Hg22 mi
3:00 PM52 °FSunny.5 mph33%29.60 "Hg25 mi
2:00 PM49 °FSunny.5 mph40%29.60 "Hg19 mi
1:00 PM49 °FSunny.3 mph43%29.60 "Hg22 mi
12:00 PM46 °FSunny.5 mph53%29.61 "Hg25 mi
11:00 AM48 °FSunny.2 mph46%29.60 "Hg22 mi
10:00 AM46 °FSunny.1 mph49%29.60 "Hg22 mi
9:00 AM42 °FSunny.3 mph65%29.61 "Hg19 mi
8:00 AM37 °FSunny.3 mph73%29.62 "Hg25 mi
Weather by CustomWeather, © 2015

See weather overviewHow to use our weather pages